IMP707 LPPT-LEMG

Flight info

Callsign IMP707
Flight time N/A
Altitude 35000
Route FTM UP600 MANIK DCT BEXAL DCT IBALU DCT SAK UG5 ROMSO UM985 BARPA M985 PIMOS
Aircraft MD82/M-VGDW/C

Departure

Time N/A
Airport Lisbon Humberto Delgado Airport (LPPT)

Arrival

Time 2026-05-06 21:04
Airport Málaga-Costa del Sol Airport (LEMG)
Time Latitude Longitude Altitude Speed Heading
2026-05-06 20:28 36.23276 -6.38038 34971 ft 462 kts 148°
2026-05-06 20:28 36.18084 -6.33263 34971 ft 462 kts 148°
2026-05-06 20:29 36.12942 -6.28529 34969 ft 461 kts 148°
2026-05-06 20:29 36.07812 -6.23795 34969 ft 461 kts 148°
2026-05-06 20:30 36.00140 -6.16657 34968 ft 461 kts 148°
2026-05-06 20:31 35.95021 -6.11938 34966 ft 460 kts 149°
2026-05-06 20:31 35.89897 -6.07239 34966 ft 459 kts 149°
2026-05-06 20:32 35.84770 -6.02477 34967 ft 459 kts 148°
2026-05-06 20:32 35.79961 -5.97301 34966 ft 471 kts 132°
2026-05-06 20:32 35.78351 -5.93756 34969 ft 482 kts 115°
2026-05-06 20:33 35.77542 -5.89728 34972 ft 490 kts 100°
2026-05-06 20:33 35.77481 -5.81331 34968 ft 496 kts 83°
2026-05-06 20:33 35.78287 -5.77187 34966 ft 499 kts 72°
2026-05-06 20:34 35.79583 -5.73239 34966 ft 499 kts 64°
2026-05-06 20:34 35.82957 -5.65777 34962 ft 499 kts 59°
2026-05-06 20:35 35.86494 -5.58368 34952 ft 500 kts 59°
2026-05-06 20:35 35.89846 -5.50873 34950 ft 499 kts 62°
2026-05-06 20:36 35.92834 -5.43541 34929 ft 491 kts 64°
2026-05-06 20:36 35.94301 -5.39800 34631 ft 481 kts 64°
2026-05-06 20:36 35.95740 -5.36090 34068 ft 479 kts 64°
2026-05-06 20:36 35.97171 -5.32387 33422 ft 478 kts 64°
2026-05-06 20:37 35.98616 -5.28695 32785 ft 478 kts 64°
2026-05-06 20:37 36.00067 -5.25026 32190 ft 476 kts 64°
2026-05-06 20:37 36.01532 -5.21383 31613 ft 473 kts 63°
2026-05-06 20:37 36.03030 -5.17773 30973 ft 472 kts 62°
2026-05-06 20:38 36.04549 -5.14178 30275 ft 473 kts 62°
2026-05-06 20:38 36.06079 -5.10587 29575 ft 473 kts 62°
2026-05-06 20:38 36.07634 -5.06959 28885 ft 473 kts 62°
2026-05-06 20:38 36.09165 -5.03374 28210 ft 472 kts 62°
2026-05-06 20:39 36.10682 -4.99787 27535 ft 471 kts 63°
2026-05-06 20:39 36.12194 -4.96206 26869 ft 469 kts 63°
2026-05-06 20:39 36.13944 -4.92821 26196 ft 467 kts 49°
2026-05-06 20:39 36.16317 -4.90144 25510 ft 462 kts 32°
2026-05-06 20:40 36.18995 -4.88002 24909 ft 456 kts 26°
2026-05-06 20:40 36.21796 -4.86222 24259 ft 451 kts 20°
2026-05-06 20:40 36.24683 -4.84791 23622 ft 446 kts 14°
2026-05-06 20:40 36.27611 -4.83622 23058 ft 439 kts 11°
2026-05-06 20:41 36.30533 -4.82599 22478 ft 435 kts
2026-05-06 20:41 36.33482 -4.81613 21836 ft 433 kts
2026-05-06 20:41 36.36371 -4.80635 21192 ft 431 kts 10°
2026-05-06 20:41 36.39245 -4.79614 20566 ft 429 kts 11°
2026-05-06 20:42 36.42029 -4.78296 19961 ft 431 kts 22°
2026-05-06 20:42 36.44426 -4.76520 19431 ft 430 kts 31°
2026-05-06 20:42 36.46772 -4.74258 18934 ft 426 kts 39°
2026-05-06 20:42 36.48929 -4.71772 18397 ft 422 kts 43°
2026-05-06 20:43 36.51111 -4.69384 17707 ft 416 kts 30°
2026-05-06 20:43 36.53679 -4.67861 17035 ft 405 kts 14°
2026-05-06 20:43 36.56347 -4.67014 16733 ft 388 kts
2026-05-06 20:43 36.58953 -4.66612 16561 ft 369 kts 358°
2026-05-06 20:44 36.61448 -4.66587 16324 ft 349 kts 347°
2026-05-06 20:44 36.63676 -4.67440 16004 ft 326 kts 327°
2026-05-06 20:44 36.65588 -4.68917 15555 ft 316 kts 317°
2026-05-06 20:44 36.67269 -4.70627 15094 ft 310 kts 313°
2026-05-06 20:45 36.68830 -4.72431 14736 ft 303 kts 310°
2026-05-06 20:45 36.70316 -4.74246 14383 ft 297 kts 309°
2026-05-06 20:45 36.71765 -4.76043 14004 ft 292 kts 310°
2026-05-06 20:45 36.73201 -4.77805 13629 ft 289 kts 310°
2026-05-06 20:46 36.74636 -4.79531 13275 ft 285 kts 311°
2026-05-06 20:46 36.76062 -4.81219 12946 ft 281 kts 312°
2026-05-06 20:46 36.77470 -4.82847 12765 ft 271 kts 313°
2026-05-06 20:46 36.78827 -4.84388 12677 ft 258 kts 313°
2026-05-06 20:47 36.80225 -4.85828 12589 ft 275 kts 322°
2026-05-06 20:47 36.81985 -4.86899 12329 ft 287 kts 334°
2026-05-06 20:47 36.83916 -4.87696 11541 ft 301 kts 340°
2026-05-06 20:47 36.85959 -4.88344 11118 ft 300 kts 343°
2026-05-06 20:48 36.87978 -4.88907 11003 ft 287 kts 344°
2026-05-06 20:48 36.89896 -4.89439 10970 ft 281 kts 343°
2026-05-06 20:48 36.91799 -4.89990 10966 ft 280 kts 343°
2026-05-06 20:48 36.93716 -4.90446 10960 ft 282 kts 350°
2026-05-06 20:49 36.95186 -4.90577 10918 ft 283 kts 354°
2026-05-06 20:49 36.97037 -4.90609 10512 ft 284 kts 357°
2026-05-06 20:49 36.99003 -4.90568 10177 ft 281 kts 359°
2026-05-06 20:49 37.00950 -4.90515 9811 ft 280 kts 358°
2026-05-06 20:50 37.02878 -4.90463 9498 ft 276 kts 358°
2026-05-06 20:50 37.04790 -4.90428 9131 ft 274 kts 358°
2026-05-06 20:50 37.06672 -4.90400 8916 ft 267 kts 358°
2026-05-06 20:50 37.08495 -4.90393 8784 ft 262 kts 357°
2026-05-06 20:51 37.10359 -4.90407 8665 ft 269 kts 356°
2026-05-06 20:51 37.12233 -4.90437 8502 ft 265 kts 356°
2026-05-06 20:51 37.14063 -4.90471 8360 ft 263 kts 356°
2026-05-06 20:51 37.15889 -4.90507 8223 ft 262 kts 356°
2026-05-06 20:52 37.17680 -4.90080 8062 ft 267 kts 21°
2026-05-06 20:52 37.19154 -4.88671 7915 ft 271 kts 48°
2026-05-06 20:52 37.20000 -4.86570 7715 ft 273 kts 73°
2026-05-06 20:52 37.20181 -4.84229 7500 ft 271 kts 97°
2026-05-06 20:53 37.19535 -4.82052 7374 ft 268 kts 125°
2026-05-06 20:53 37.18196 -4.80488 7221 ft 263 kts 152°
2026-05-06 20:53 37.16485 -4.79805 7101 ft 258 kts 173°
2026-05-06 20:53 37.14706 -4.79656 6993 ft 256 kts 182°
2026-05-06 20:54 37.12935 -4.79698 6955 ft 255 kts 184°
2026-05-06 20:54 37.11140 -4.79783 6946 ft 255 kts 185°
2026-05-06 20:54 37.09374 -4.79896 6944 ft 255 kts 185°
2026-05-06 20:54 37.07608 -4.79995 6951 ft 253 kts 184°
2026-05-06 20:55 37.05862 -4.80021 6952 ft 251 kts 180°
2026-05-06 20:55 37.04123 -4.79885 6955 ft 250 kts 177°
2026-05-06 20:55 37.02394 -4.79670 6924 ft 250 kts 175°
2026-05-06 20:55 37.00689 -4.79418 6624 ft 243 kts 175°
2026-05-06 20:56 36.99037 -4.79160 6352 ft 236 kts 175°
2026-05-06 20:56 36.97428 -4.78907 6047 ft 231 kts 175°
2026-05-06 20:56 36.95870 -4.78663 5863 ft 221 kts 175°
2026-05-06 20:56 36.94375 -4.78429 5708 ft 212 kts 175°
2026-05-06 20:57 36.92899 -4.78202 5588 ft 221 kts 175°
2026-05-06 20:57 36.91369 -4.77970 5414 ft 222 kts 175°
2026-05-06 20:57 36.89822 -4.77732 5259 ft 221 kts 174°
2026-05-06 20:57 36.88398 -4.77500 5126 ft 220 kts 174°
2026-05-06 20:58 36.86926 -4.77027 4986 ft 221 kts 154°
2026-05-06 20:58 36.85709 -4.75845 4887 ft 224 kts 138°
2026-05-06 20:58 36.84683 -4.74440 4779 ft 213 kts 131°
2026-05-06 20:58 36.83839 -4.73004 4675 ft 200 kts 128°
2026-05-06 20:59 36.83019 -4.71633 4448 ft 196 kts 129°
2026-05-06 20:59 36.82160 -4.70330 4227 ft 191 kts 132°
2026-05-06 20:59 36.81299 -4.69111 4092 ft 185 kts 133°
2026-05-06 20:59 36.80436 -4.67925 3825 ft 185 kts 134°
2026-05-06 21:00 36.79573 -4.66753 3543 ft 183 kts 134°
2026-05-06 21:00 36.78731 -4.65603 3334 ft 173 kts 134°
2026-05-06 21:00 36.77952 -4.64526 3071 ft 163 kts 133°
2026-05-06 21:00 36.77205 -4.63498 2772 ft 157 kts 132°
2026-05-06 21:01 36.76470 -4.62505 2503 ft 150 kts 133°
2026-05-06 21:01 36.75800 -4.61560 2263 ft 141 kts 133°
2026-05-06 21:01 36.75176 -4.60661 2062 ft 134 kts 132°
2026-05-06 21:01 36.74558 -4.59809 1887 ft 133 kts 131°
2026-05-06 21:02 36.73897 -4.58948 1712 ft 141 kts 132°
2026-05-06 21:02 36.73248 -4.58029 1560 ft 141 kts 130°
2026-05-06 21:02 36.72612 -4.57105 1353 ft 140 kts 131°
2026-05-06 21:02 36.71973 -4.56201 1160 ft 139 kts 131°
2026-05-06 21:03 36.71334 -4.55301 969 ft 138 kts 131°
2026-05-06 21:03 36.70701 -4.54409 782 ft 137 kts 132°
2026-05-06 21:03 36.70076 -4.53534 593 ft 133 kts 133°
2026-05-06 21:03 36.69471 -4.52683 406 ft 130 kts 131°
2026-05-06 21:04 36.68866 -4.51840 220 ft 132 kts 130°
2026-05-06 21:04 36.68247 -4.50970 54 ft 129 kts 132°
2026-05-06 21:04 36.67698 -4.50201 46 ft 99 kts 131°
2026-05-06 21:04 36.67386 -4.49765 46 ft 41 kts 130°
2026-05-06 21:05 36.67299 -4.49545 46 ft 25 kts 103°
2026-05-06 21:05 36.67316 -4.49407 46 ft 11 kts 15°
2026-05-06 21:05 36.67386 -4.49472 46 ft 17 kts 309°
2026-05-06 21:05 36.67462 -4.49454 46 ft 11 kts 77°
2026-05-06 21:06 36.67464 -4.49386 46 ft 6 kts 89°
2026-05-06 21:06 36.67464 -4.49373 46 ft 0 kts 89°